SCP
0 0 0 0 0 0 0 0 0 0 0 0 0 0 0 0 0 0 0 0 0 0 0 0 0 0 0 0 0 0 0 0 0 0 0 0 0 0 0 0 0 0 0
0 0 0 0 0 0 0 0 0 0 0 0 0 0 0 0 0 0 0 0 0 0 0 0 0 0 0 0 0 0 0 0 0 0 0 0 0 0 0 0 0 0 0
0 0 0 0 0 0 0 0 0 0 0 0 0 0 0 0 0 0 0 0 0 0 0 0 0 0 0 0 0 0 0 0 0 0 0 0 0 0 0 0 0 0 0
0 0 0 0 0 0 0 0 0 0 0 0 0 0 0 0 0 0 0 0 0 0 0 0 0 0 0 0 0 0 0 0 0 0 0 0 -0 -0 -0 -0 0 0 0
0 0 0 0 0 0 0 0 0 0 0 0 0 0 0 0 0 0 0 0 0 0 0 0 0 0 0 0 0 0 0 0 0 0 0 0 -0 -0 -0 -0 -0 -0 -0
0 0 0 0 0 0 0 0 0 0 0 0 0 0 0 0 0 0 0 0 0 0 0 0 0 0 0 0 0 0 0 0 0 0 0 0 0 -0 -0 0 0 0 0
0 0 0 0 0 0 0 0 0 0 0 0 0 0 0 0 0 0 0 0 0 0 0 0 0 0 0 0 0 0 0 0 0 0 0 0 0 0 0 0 0 0 0
0 0 0 0 0 0 0 0 0 0 0 0 0 0 0 0 0 0 0 0 0 0 0 0 0 0 0 0 0 0 0 0 0 0 0 0 0 0 0 0 0 0 0
0 0 0 0 0 0 0 0 0 0 0 0 0 0 0 0 0 0 0 0 0 0 0 0 0 0 0 0 0 0 0 0 0 0 0 0 0 0 0 0 0 0 0
0 0 0 0 0 0 0 0 0 0 0 0 0 0 0 0 0 0 0 0 0 0 0 0 0 0 0 0 0 0 0 0 0 0 0 0 0 0 0 0 0 0 0
0 0 0 0 0 0 0 0 0 0 0 0 0 0 0 0 0 0 0 0 0 0 0 0 0 0 0 0 0 0 0 0 0 0 0 0 0 0 0 0 0 0 0
0 0 0 0 0 0 0 0 0 0 0 0 0 0 0 0 0 0 0 0 0 0 0 0 0 0 0 0 0 0 0 0 0 0 0 0 0 0 0 0 0 0 0
-0 0 0 0 0 0 0 0 0 0 0 0 0 0 0 0 0 0 0 0 0 0 0 0 0 0 0 0 0 0 0 0 0 0 0 0 0 0 0 0 0 0 0
-0 0 0 0 0 0 0 0 0 0 0 0 0 0 0 0 0 0 0 0 0 0 0 0 0 0 0 0 0 0 0 0 0 0 0 0 0 0 0 0 0 0 0
0 0 0 0 0 0 0 0 0 0 0 0 0 0 0 0 0 0 0 0 0 0 0 0 0 0 0 0 0 0 0 0 0 0 0 0 0 0 0 0 0 0 0
0 0 0 0 0 0 0 0 0 0 0 0 0 0 0 0 0 0 0 0 0 0 0 0 0 0 0 0 0 0 0 0 0 0 0 0 0 0 0 0 0 0 0
0 0 0 0 0 0 0 0 0 0 0 0 0 0 0 0 0 0 0 0 0 0 0 0 0 0 0 0 0 0 0 0 0 0 0 0 0 0 0 0 0 0 0
0 0 0 0 0 0 0 0 0 0 0 0 0 0 0 0 0 0 0 0 0 0 0 0 0 0 0 0 0 0 0 0 0 0 0 0 0 0 0 0 0 0 0
0 0 0 0 0 0 0 0 0 0 0 0 0 0 0 0 0 0 0 0 0 0 0 0 0 0 0 0 0 0 0 0 0 0 0 0 0 0 0 0 0 0 0
0 0 0 0 0 0 0 0 0 0 0 0 0 0 0 0 0 0 0 0 0 0 0 0 0 0 0 0 0 0 0 0 0 0 0 0 0 0 0 0 0 0 0
0 0 0 0 0 0 0 0 0 0 0 0 0 0 0 0 0 0 0 0 0 0 0 0 0 0 0 0 0 0 0 0 0 0 0 0 0 0 0 0 0 0 0
0 0 0 0 0 0 0 0 0 0 0 0 0 0 0 0 0 0 0 0 0 0 0 0 0 0 0 0 0 0 0 0 0 0 0 0 0 0 0 0 0 0 0
0 0 0 0 0 0 0 0 0 0 0 0 0 0 0 0 0 0 0 0 0 0 0 0 0 0 0 0 0 0 0 0 0 0 0 0 0 0 0 0 0 0 0
0 0 0 0 0 0 0 0 0 0 0 0 0 0 0 0 0 0 0 0 0 0 0 0 0 0 0 0 0 0 0 0 0 0 0 0 0 0 0 0 0 0 0
0 0 0 0 0 0 0 0 0 0 0 0 0 0 0 0 0 0 0 0 0 0 0 0 0 0 0 0 0 0 0 0 0 0 0 0 0 0 0 0 0 0 0
0 0 0 0 0 0 0 0 0 0 0 0 0 0 0 0 0 0 0 0 0 0 0 0 0 0 0 0 0 0 0 0 0 0 0 0 0 0 0 0 0 0 0
Wind_Speed
7 7 7 8 8 9 10 14 15 14 16 18 19 18 18 17 16 14 12 13 13 11 10 9 8 8 6 5 4 3 2 2 2 3 4 5 6 6 8 8 10 9 10
8 8 10 9 9 10 13 14 15 16 17 18 19 19 19 19 19 18 16 15 15 14 14 12 11 9 8 7 6 5 4 4 2 1 3 3 4 6 9 10 9 9 9
13 11 12 11 12 17 19 17 16 16 17 18 19 21 21 21 21 21 19 17 16 15 14 14 13 13 11 9 8 7 6 5 4 3 2 3 4 5 7 9 9 8 7
12 11 12 13 16 18 18 16 17 18 19 19 21 21 20 20 21 20 19 17 16 14 13 14 14 15 14 12 9 8 7 7 6 4 3 4 4 5 5 7 8 7 6
15 17 16 13 11 13 15 15 15 18 20 21 20 20 20 19 19 21 20 19 18 16 14 13 13 15 18 16 12 10 9 7 5 4 3 2 2 3 4 7 10 9 7
15 16 18 17 12 11 12 12 13 16 17 18 21 21 20 18 27 33 25 19 19 18 16 14 13 15 18 21 20 17 15 11 7 5 4 3 2 3 5 6 8 10 8
13 14 15 18 17 13 9 9 12 15 16 18 19 19 20 20 29 33 30 18 17 17 16 15 12 12 14 14 18 19 18 19 16 12 6 4 1 2 5 6 6 9 8
12 13 15 17 18 16 9 7 7 9 13 16 17 18 18 20 30 32 29 16 16 17 17 17 16 16 16 17 15 13 10 9 8 6 4 3 3 3 4 4 6 7 8
15 15 15 16 18 15 10 7 4 6 9 12 14 15 16 18 28 31 27 14 14 15 15 15 15 15 22 24 15 12 10 8 9 11 10 8 6 7 8 5 4 5 7
16 17 16 13 14 15 11 5 3 5 7 8 8 10 14 15 24 32 29 13 13 12 12 14 18 19 25 27 17 14 12 10 8 6 3 0 1 3 8 4 1 2 5
16 18 18 12 12 12 10 3 2 3 3 4 4 5 9 12 20 33 32 14 12 12 11 12 14 23 26 27 20 12 12 11 9 8 6 4 3 2 2 3 4 4 7
17 18 17 15 12 8 8 5 3 5 5 5 6 4 5 8 15 27 32 23 17 14 12 11 14 25 25 25 19 18 19 12 7 6 4 3 3 2 3 4 6 8 11
19 20 18 17 13 9 9 8 6 6 5 5 6 7 7 7 10 21 30 27 20 12 10 15 21 26 24 20 21 20 12 8 6 5 4 4 3 2 4 5 7 10 12
20 20 18 18 16 12 9 9 9 9 9 10 11 11 10 9 10 11 14 17 17 12 12 15 18 18 14 9 8 9 6 6 6 4 4 3 1 2 4 5 7 8 10
19 19 17 16 16 14 13 12 11 12 13 12 11 10 11 13 15 19 17 14 13 15 14 11 12 10 9 7 5 5 5 5 5 4 3 2 0 2 4 6 7 8 8
19 18 15 14 14 13 12 12 19 20 22 25 22 15 13 17 23 29 29 27 29 29 16 10 11 12 11 10 9 8 7 7 6 5 4 3 1 2 5 6 7 8 9
19 19 16 14 13 13 12 10 9 13 23 26 27 25 21 20 27 35 35 30 30 26 14 11 10 10 10 10 10 9 8 8 7 5 4 3 1 2 6 7 8 8 9
19 20 17 14 13 13 12 9 8 8 9 12 20 23 23 25 27 31 35 30 24 19 12 12 10 9 9 9 9 8 8 8 7 6 5 3 2 3 5 7 8 9 10
17 15 14 14 13 15 13 8 8 8 8 7 8 15 19 22 24 28 30 20 15 14 14 13 11 10 9 8 7 7 7 6 5 5 4 3 3 3 5 8 9 11 12
16 17 16 13 12 14 12 9 7 7 7 7 8 9 10 13 15 15 16 11 9 11 11 10 11 10 9 8 7 7 5 5 5 4 4 3 3 5 7 8 8 9 10
13 13 16 13 12 13 10 8 8 7 8 8 7 9 15 14 11 11 10 8 10 10 10 9 9 11 9 8 7 6 5 5 5 4 3 3 5 5 6 7 8 10 11
13 12 12 12 12 11 8 7 7 7 7 6 5 10 20 12 6 6 8 9 9 9 9 9 8 8 8 7 7 6 5 5 4 4 4 5 5 5 6 7 8 10 10
11 10 10 10 9 7 5 4 5 5 5 5 5 5 5 7 8 9 9 9 10 10 9 9 9 8 6 6 5 5 5 5 6 7 6 5 5 5 6 7 10 10 10
9 8 6 5 4 3 3 3 4 4 4 5 6 7 8 9 10 10 10 10 11 10 8 7 7 8 8 6 4 4 4 4 4 6 7 6 5 6 7 9 10 11 10
8 8 7 6 6 5 6 6 6 6 7 7 7 8 9 9 11 11 10 11 11 9 8 6 5 6 7 6 5 5 7 8 8 8 7 6 7 9 9 9 10 10 10
10 9 8 8 7 7 6 6 6 7 7 7 7 8 8 9 10 11 11 11 9 8 7 5 5 5 4 4 5 7 9 11 12 12 9 7 8 8 7 8 10 8 10
Wind_Direction
290 275 259 245 228 207 201 203 200 192 181 178 182 184 183 182 182 180 177 171 176 175 171 169 167 153 148 147 142 146 150 147 211 312 331 349 355 351 330 314 304 297 297
300 263 244 236 226 219 214 212 202 195 188 184 183 185 188 187 184 184 181 179 180 180 175 170 167 155 151 157 158 162 161 162 155 256 318 329 311 315 301 287 273 260 255
322 292 265 245 228 226 223 215 207 201 196 190 187 189 191 191 188 188 186 180 183 186 179 173 168 161 167 172 166 160 157 162 164 183 237 282 282 286 286 278 267 261 252
330 315 284 257 239 235 233 222 209 201 198 198 194 192 193 193 192 190 185 181 181 182 179 176 172 174 171 167 164 164 159 164 162 187 220 249 261 266 272 296 308 313 304
339 342 332 305 274 253 240 228 210 204 199 197 197 195 192 192 194 191 188 182 178 177 177 178 178 173 170 170 170 168 163 159 156 164 200 229 270 317 334 333 329 328 316
343 343 335 325 309 274 250 232 212 207 203 199 200 195 194 195 196 194 188 181 179 179 175 174 174 172 179 181 181 180 175 166 153 159 182 209 289 340 335 341 331 333 342
333 331 334 330 323 307 274 239 218 209 204 205 206 200 198 198 199 196 193 185 179 179 172 169 167 169 171 175 183 185 188 188 179 172 179 185 167 288 310 317 323 321 317
324 325 331 332 323 310 288 250 234 215 207 205 206 203 201 199 198 194 190 185 180 178 174 176 174 169 174 174 175 182 186 192 188 177 161 175 199 252 252 298 346 330 311
324 324 329 328 316 301 273 257 231 218 218 219 211 203 205 203 196 187 182 186 184 177 170 171 170 167 179 179 169 170 177 187 198 204 205 220 242 305 325 345 347 334 314
324 322 313 305 294 283 266 246 232 221 223 223 220 202 205 202 193 187 181 181 180 173 167 170 171 172 181 183 173 168 173 181 180 170 166 351 11 322 310 307 237 247 285
319 310 300 290 275 272 271 253 213 214 186 179 196 206 203 200 197 193 184 179 178 170 172 167 174 179 184 186 179 173 175 171 175 151 144 165 189 210 264 280 260 238 253
304 299 299 297 282 258 253 245 199 192 186 166 162 179 203 206 210 199 191 184 182 177 178 167 166 177 186 189 185 186 185 159 140 133 138 175 182 192 238 259 273 266 259
304 303 305 302 290 259 239 232 217 200 195 185 181 193 196 189 207 210 201 187 189 180 169 162 164 175 182 188 189 187 170 143 137 134 172 189 176 240 279 287 282 275 268
301 300 300 297 292 271 239 228 223 212 204 203 197 196 187 183 183 198 202 183 178 170 161 154 161 171 169 153 174 169 151 146 139 154 178 173 164 275 286 285 278 279 279
291 289 289 288 282 271 243 225 225 223 212 214 210 194 185 186 190 191 186 173 158 153 150 151 155 151 144 136 136 138 139 140 143 155 160 149 251 295 287 280 280 282 283
286 285 283 281 281 275 261 245 236 236 233 230 224 206 199 196 185 192 198 176 167 160 156 165 164 162 159 153 160 161 163 167 158 156 162 168 234 287 286 281 278 275 280
276 279 280 276 273 272 261 241 246 243 240 236 231 218 207 202 194 191 193 186 174 165 158 162 167 161 159 161 162 163 164 160 156 160 170 172 199 273 283 282 280 279 282
274 275 275 274 272 270 261 236 226 234 234 232 229 223 211 206 204 198 193 183 178 169 162 160 163 165 162 161 160 159 157 156 156 159 168 171 184 232 267 273 275 281 287
275 272 272 273 274 279 275 243 215 222 227 225 212 218 208 204 206 205 198 194 183 164 155 153 156 158 155 156 150 147 149 149 151 157 168 178 192 215 250 262 273 280 285
272 267 265 264 266 267 261 238 215 221 225 218 206 205 187 183 195 200 202 197 169 154 152 146 142 143 143 145 142 145 147 151 159 172 181 186 207 226 248 264 276 284 280
276 271 266 260 256 258 248 217 209 211 216 213 208 203 194 184 190 191 184 159 145 141 139 137 134 132 134 136 142 149 156 164 168 175 176 200 217 233 252 264 275 275 277
274 265 259 254 257 254 230 204 203 205 206 201 192 201 199 182 158 132 126 123 121 116 117 123 124 122 131 144 147 152 167 175 180 181 196 214 227 243 258 269 273 273 287
293 283 271 260 246 229 207 193 184 180 174 169 170 167 160 121 111 109 105 102 100 97 101 110 116 116 123 134 146 161 174 189 189 187 198 212 227 245 260 269 274 281 291
315 317 326 350 29 59 78 93 98 102 105 97 86 88 92 99 103 101 99 97 95 94 95 102 115 127 139 147 159 177 194 197 189 199 204 211 235 256 262 264 275 281 289
345 353 4 15 32 46 57 64 65 63 69 81 86 89 91 96 99 100 99 99 98 100 101 105 116 133 146 160 182 200 213 223 222 213 207 215 236 250 255 264 277 281 289
3 10 15 20 29 38 48 57 62 66 68 72 78 84 91 98 100 101 101 101 103 106 111 116 127 134 150 184 210 219 221 226 229 226 215 221 242 253 261 273 278 278 287